| time (UTC) | temp F | wind direction | speed knots | gust knots | rain 1hr in | rain 24hr in | rain mn in | humidity % | barometer mb |
| 20260507070140 | 56 | 342 | 0.0 | 3.5 | 0.01 | 0.09 | 0.01 | 86 | 1009.2 |
| 20260507064513 | 57 | 343 | 0.0 | 10.4 | 0.01 | 0.09 | 0.01 | 86 | 1009.0 |
| 20260507063007 | 58 | 351 | 0.0 | 7.8 | 0.01 | 0.09 | 0.01 | 86 | 1009.2 |
| 20260507061513 | 58 | 298 | 0.0 | 4.3 | 0.01 | 0.09 | 0.01 | 86 | 1009.2 |
| 20260507060003 | 59 | 262 | 0.0 | 2.6 | 0.00 | 0.08 | 0.00 | 86 | 1008.1 |
| 20260507054500 | 60 | 261 | 0.0 | 2.6 | 0.01 | 0.08 | 0.00 | 85 | 1007.5 |
| 20260507053058 | 61 | 259 | 0.0 | 3.5 | 0.01 | 0.08 | 0.00 | 84 | 1008.0 |
| 20260507051555 | 62 | 326 | 0.0 | 4.3 | 0.02 | 0.08 | 0.00 | 84 | 1008.8 |
| 20260507050052 | 62 | 349 | 0.0 | 0.9 | 0.02 | 0.08 | 0.00 | 83 | 1009.1 |
| 20260507044550 | 63 | 360 | 0.0 | 0.0 | 0.01 | 0.07 | 0.07 | 83 | 1008.5 |
| 20260507043049 | 65 | 63 | 1.7 | 7.0 | 0.01 | 0.07 | 0.07 | 84 | 1008.8 |
| 20260507041550 | 65 | 161 | 0.0 | 0.0 | 0.00 | 0.06 | 0.06 | 83 | 1008.1 |
| 20260507040051 | 65 | 161 | 0.0 | 0.0 | 0.00 | 0.06 | 0.06 | 83 | 1008.2 |
| 20260507034549 | 65 | 161 | 0.0 | 0.0 | 0.00 | 0.06 | 0.06 | 83 | 1008.0 |
| 20260507033047 | 65 | 161 | 0.0 | 0.0 | 0.00 | 0.06 | 0.06 | 82 | 1007.8 |
| 20260507031546 | 65 | 161 | 0.0 | 0.0 | 0.00 | 0.06 | 0.06 | 82 | 1007.8 |
| 20260507030050 | 65 | 161 | 0.0 | 0.0 | 0.00 | 0.06 | 0.06 | 82 | 1008.1 |
| 20260507024546 | 65 | 161 | 0.0 | 0.0 | 0.00 | 0.06 | 0.06 | 81 | 1007.8 |
| 20260507023045 | 66 | 161 | 0.0 | 0.0 | 0.00 | 0.06 | 0.06 | 81 | 1007.4 |
| 20260507021550 | 66 | 161 | 0.0 | 0.0 | 0.00 | 0.06 | 0.06 | 80 | 1007.1 |
| 20260507020051 | 66 | 161 | 0.0 | 0.0 | 0.00 | 0.06 | 0.06 | 79 | 1007.7 |
| 20260507014557 | 66 | 161 | 0.0 | 0.0 | 0.00 | 0.06 | 0.06 | 79 | 1007.6 |
| 20260507013043 | 66 | 161 | 0.0 | 0.0 | 0.00 | 0.06 | 0.06 | 78 | 1007.8 |
| 20260507011543 | 67 | 161 | 0.0 | 0.0 | 0.00 | 0.06 | 0.06 | 78 | 1007.8 |
| 20260507010050 | 67 | 161 | 0.0 | 0.0 | 0.00 | 0.06 | 0.06 | 78 | 1007.2 |
| 20260507004543 | 67 | 161 | 0.0 | 0.0 | 0.00 | 0.06 | 0.06 | 77 | 1007.3 |
| 20260507003041 | 67 | 161 | 0.0 | 0.9 | 0.00 | 0.06 | 0.06 | 77 | 1007.1 |
| 20260507001540 | 68 | 161 | 0.0 | 2.6 | 0.00 | 0.06 | 0.06 | 76 | 1007.1 |
| 20260507000043 | 68 | 161 | 0.0 | 0.9 | 0.00 | 0.06 | 0.06 | 76 | 1007.1 |
| 20260506234540 | 69 | 161 | 0.0 | 1.7 | 0.00 | 0.06 | 0.06 | 75 | 1006.9 |
| 20260506233039 | 69 | 161 | 0.0 | 5.2 | 0.00 | 0.06 | 0.06 | 75 | 1006.6 |
| 20260506231538 | 69 | 161 | 0.0 | 4.3 | 0.00 | 0.06 | 0.06 | 74 | 1006.6 |
| 20260506230037 | 69 | 162 | 0.0 | 4.3 | 0.00 | 0.06 | 0.06 | 73 | 1006.7 |
| 20260506224538 | 70 | 159 | 0.0 | 4.3 | 0.00 | 0.06 | 0.06 | 72 | 1006.8 |
| 20260506223037 | 70 | 159 | 0.0 | 5.2 | 0.00 | 0.06 | 0.06 | 71 | 1006.7 |
| 20260506221536 | 70 | 165 | 0.0 | 4.3 | 0.00 | 0.06 | 0.06 | 71 | 1006.9 |
| 20260506220038 | 70 | 164 | 0.0 | 5.2 | 0.00 | 0.06 | 0.06 | 71 | 1006.8 |
| 20260506214535 | 70 | 159 | 0.0 | 9.6 | 0.00 | 0.06 | 0.06 | 70 | 1006.6 |
| 20260506213034 | 70 | 157 | 0.0 | 6.1 | 0.00 | 0.06 | 0.06 | 71 | 1006.9 |
| 20260506211533 | 70 | 169 | 0.0 | 7.8 | 0.00 | 0.06 | 0.06 | 71 | 1006.6 |
| 20260506210033 | 69 | 166 | 0.9 | 6.1 | 0.00 | 0.06 | 0.06 | 72 | 1006.7 |
| 20260506204531 | 69 | 159 | 0.0 | 2.6 | 0.00 | 0.06 | 0.06 | 72 | 1006.5 |
| 20260506203029 | 68 | 162 | 0.9 | 7.8 | 0.00 | 0.06 | 0.06 | 73 | 1006.5 |
| 20260506201541 | 68 | 168 | 3.5 | 8.7 | 0.00 | 0.06 | 0.06 | 74 | 1006.7 |
| 20260506200029 | 67 | 153 | 0.0 | 5.2 | 0.00 | 0.06 | 0.06 | 76 | 1006.6 |
| 20260506194529 | 66 | 160 | 0.9 | 6.1 | 0.00 | 0.06 | 0.06 | 77 | 1006.8 |
| 20260506193026 | 66 | 153 | 1.7 | 10.4 | 0.00 | 0.06 | 0.06 | 78 | 1007.0 |
| 20260506191522 | 66 | 167 | 1.7 | 7.0 | 0.00 | 0.06 | 0.06 | 79 | 1007.3 |
| 20260506190020 | 66 | 161 | 0.0 | 7.0 | 0.00 | 0.06 | 0.06 | 79 | 1007.7 |
| 20260506184520 | 66 | 175 | 0.9 | 9.6 | 0.00 | 0.06 | 0.06 | 79 | 1008.0 |
| 20260506183019 | 66 | 155 | 0.0 | 7.0 | 0.00 | 0.06 | 0.06 | 79 | 1007.7 |
| 20260506181518 | 65 | 161 | 0.0 | 7.0 | 0.00 | 0.06 | 0.06 | 81 | 1008.0 |
| 20260506180018 | 65 | 160 | 0.0 | 7.8 | 0.00 | 0.06 | 0.06 | 81 | 1008.0 |
| 20260506174516 | 65 | 155 | 0.0 | 5.2 | 0.00 | 0.06 | 0.06 | 82 | 1008.1 |
| 20260506173015 | 64 | 153 | 1.7 | 13.0 | 0.00 | 0.06 | 0.06 | 84 | 1008.1 |
| 20260506171516 | 64 | 149 | 0.0 | 2.6 | 0.00 | 0.06 | 0.06 | 86 | 1008.2 |
| 20260506170015 | 63 | 155 | 0.0 | 5.2 | 0.00 | 0.06 | 0.06 | 87 | 1008.1 |
| 20260506164512 | 63 | 157 | 0.0 | 8.7 | 0.00 | 0.06 | 0.06 | 88 | 1008.4 |
| 20260506163017 | 62 | 175 | 0.9 | 7.0 | 0.00 | 0.06 | 0.06 | 89 | 1008.5 |
| 20260506161510 | 62 | 158 | 0.0 | 7.8 | 0.00 | 0.06 | 0.06 | 89 | 1009.0 |
| 20260506160012 | 61 | 159 | 0.0 | 4.3 | 0.00 | 0.06 | 0.06 | 89 | 1008.7 |
| 20260506154506 | 61 | 163 | 0.0 | 4.3 | 0.01 | 0.06 | 0.06 | 89 | 1008.8 |
| 20260506153003 | 61 | 161 | 1.7 | 9.6 | 0.02 | 0.06 | 0.06 | 89 | 1008.7 |
| 20260506151501 | 61 | 164 | 0.9 | 5.2 | 0.05 | 0.06 | 0.06 | 88 | 1008.7 |
| 20260506144600 | 61 | 161 | 2.6 | 8.7 | 0.04 | 0.05 | 0.05 | 86 | 1009.1 |
| 20260506143056 | 62 | 160 | 0.9 | 8.7 | 0.03 | 0.04 | 0.04 | 85 | 1009.4 |
| 20260506141557 | 62 | 160 | 0.0 | 4.3 | 0.02 | 0.02 | 0.02 | 83 | 1009.4 |
| 20260506134551 | 62 | 156 | 0.0 | 2.6 | 0.01 | 0.01 | 0.01 | 81 | 1009.0 |
| 20260506133053 | 62 | 155 | 0.0 | 5.2 | 0.01 | 0.01 | 0.01 | 79 | 1009.1 |
| 20260506131549 | 63 | 155 | 0.0 | 4.3 | 0.00 | 0.00 | 0.00 | 76 | 1009.2 |
| 20260506130052 | 63 | 157 | 0.0 | 6.1 | 0.00 | 0.00 | 0.00 | 75 | 1009.3 |
| 20260506124543 | 63 | 155 | 1.7 | 7.8 | 0.00 | 0.00 | 0.00 | 72 | 1009.2 |
| 20260506123042 | 64 | 163 | 0.0 | 5.2 | 0.00 | 0.00 | 0.00 | 70 | 1008.9 |
| 20260506121541 | 64 | 163 | 0.9 | 5.2 | 0.00 | 0.00 | 0.00 | 69 | 1009.0 |
| 20260506120042 | 64 | 154 | 0.0 | 4.3 | 0.00 | 0.00 | 0.00 | 68 | 1009.0 |
| 20260506114544 | 64 | 164 | 0.0 | 5.2 | 0.00 | 0.00 | 0.00 | 68 | 1009.2 |
| 20260506113038 | 64 | 164 | 1.7 | 6.1 | 0.00 | 0.00 | 0.00 | 68 | 1009.1 |
| 20260506111542 | 65 | 163 | 0.0 | 9.6 | 0.00 | 0.00 | 0.00 | 68 | 1009.0 |
| 20260506110037 | 65 | 159 | 0.0 | 4.3 | 0.00 | 0.00 | 0.00 | 68 | 1008.7 |
| 20260506104541 | 65 | 158 | 1.7 | 7.0 | 0.00 | 0.00 | 0.00 | 68 | 1008.7 |
| 20260506103033 | 65 | 160 | 0.9 | 6.1 | 0.00 | 0.00 | 0.00 | 68 | 1008.8 |
| 20260506101536 | 65 | 150 | 0.9 | 6.1 | 0.00 | 0.00 | 0.00 | 68 | 1008.8 |
| 20260506100033 | 65 | 161 | 0.0 | 3.5 | 0.00 | 0.00 | 0.00 | 67 | 1008.9 |
| 20260506094531 | 65 | 165 | 0.0 | 0.9 | 0.00 | 0.00 | 0.00 | 67 | 1008.8 |
| 20260506093052 | 65 | 153 | 0.0 | 7.8 | 0.00 | 0.00 | 0.00 | 66 | 1008.6 |
| 20260506091529 | 65 | 161 | 0.0 | 2.6 | 0.00 | 0.00 | 0.00 | 66 | 1008.8 |
| 20260506090028 | 65 | 166 | 0.0 | 6.1 | 0.00 | 0.00 | 0.00 | 66 | 1008.8 |
| 20260506084527 | 65 | 161 | 0.9 | 4.3 | 0.00 | 0.00 | 0.00 | 65 | 1009.0 |
| 20260506083026 | 65 | 161 | 1.7 | 7.8 | 0.00 | 0.00 | 0.00 | 65 | 1009.0 |
| 20260506081525 | 65 | 159 | 0.0 | 2.6 | 0.00 | 0.00 | 0.00 | 64 | 1009.1 |
| 20260506073020 | 66 | 159 | 0.9 | 6.1 | 0.00 | 0.00 | 0.00 | 61 | 1009.0 |
| 20260506071519 | 67 | 176 | 0.0 | 7.8 | 0.00 | 0.00 | 0.00 | 60 | 1009.1 |